Weather in Maasin

Philippines     10°08′15″N   124°51′33″E
temp.,
°C
wind,
m/s
gust,
m/s
humid.,
%
clouds,
%
prec.,
mm/h
press.,
hPa
HPBL,
m
26 january, tue
tue2623:00+24ne238766 0.0 1011164
02:00+24ne338565 0.0 1009218
05:00+24ne458635 0.0 1009268
08:00+25ne237965 0.0 1011312
11:00+28nw4472100 0.0 1010615
14:00+26wnw4482100 0.3 1008356
17:00+27nw3385100 0.6 1008285
20:00+26ne3484100 1.7 1010212
27 january, wed
wed2723:00+25ne3386100 1.3 1010178
02:00+25ne3386100 2.9 1008224
05:00+25ene3387100 0.3 1009233
08:00+26ne238492 0.4 1010267
11:00+28wsw1171100 0.1 1009493
14:00+28wsw3371100 0.5 1008752
17:00+27wnw2379100 0.1 1008229
20:00+26e228492 0.1 1009110
28 january, thu
thu2823:00+25e228585 0.0 1010115
02:00+24ene228792 0.0 1009128
05:00+24ene2287100 0.0 1010113
08:00+26ne2280100 0.1 1011229
11:00+27wsw0278100 0.5 1011403
14:00+27wsw1279100 2.3 1009490
17:00+27nne478078 3.6 1009762
20:00+26nne588487 4.1 1011694
29 january, fri
fri2923:00+26nne51184100 0.0 1012854
02:00+25ne5118299 0.0 1010875
05:00+25ne4980100 0.0 1010778
08:00+26ne5117971 0.0 10121085
11:00+28ne6106810 0.1 10121282
14:00+28ne6106844 0.2 10101170
17:00+26ne6117872 0.5 10101207
20:00+25ne5128259 0.9 10121165
30 january, sat
sat3023:00+25ne6128094 0.3 10121074
02:00+24nne6128263 0.3 1011969
05:00+24nne6128247 0.0 1011930
08:00+25nne8137874 0.0 10131100
11:00+27ne7127299 0.1 10131308
14:00+28nne5117175 0.1 10111277
17:00+27ne5117411 0.0 10101202
20:00+25nne5118017 0.1 10121095